This demonstration page uses our WeatherBlox Daily Observations layout. Learn more.

Left ArrowRight Arrow

39.92423, -83.80882

Hourly Observations for May 15, 2020

Temp ( °F °C ) Dew Point ( °F °C ) Humidity (%) Winds ( mph kmh ) Pressure ( in mb ) Visibility ( mi km ) Precip ( " mm )
12:56 am 00:56 Mostly Clear 63 17.2 59 15 87 87 S 5 7 29.98 1015 10 16.0934 0.08 2.032
1:56 am 01:56 Mostly Cloudy 65 18.3 58 14.4 78 78 S 7 11 29.96 1014 10 16.0934 0.04 1.016
2:56 am 02:56 Clear 63 17.2 57 13.9 81 81 S 8 13 29.95 1014 10 16.0934 0.87 22.098
3:56 am 03:56 Partly Cloudy 63 17.2 57 13.9 81 81 S 7 11 29.94 1014 10 16.0934 3.26 82.804
4:56 am 04:56 Partly Cloudy 63 17.2 57 13.9 81 81 SSW 10 17 29.94 1014 10 16.0934 4.23 107.442
5:56 am 05:56 Clear 63 17.2 58 14.4 84 84 SSW 12 19 29.95 1014 10 16.0934 5.69 144.526
6:56 am 06:56 Sunny 64 17.8 58 14.4 81 81 SSW 12 19 29.95 1014 10 16.0934 1.7 43.18
7:56 am 07:56 Mostly Cloudy 66 18.9 59 15 78 78 SSW 15 24 29.95 1014 10 16.0934 0.5 12.7
8:56 am 08:56 Cloudy 68 20 60 15.6 76 76 SSW 16 26 29.96 1014 10 16.0934 1.93 49.022
9:56 am 09:56 Cloudy with Light Rain 66 18.9 61 16.1 84 84 SSW 14 22 29.96 1015 10 16.0934 0.47 11.938
10:56 am 10:56 Cloudy 70 21.1 61 16.1 73 73 SSW 16 26 29.94 1014 10 16.0934 1.01 25.654
11:56 am 11:56 Mostly Cloudy 73 22.8 62 16.7 69 69 SW 22 35 29.93 1013 10 16.0934 0.38 9.652
12:56 pm 12:56 Cloudy 72 22.2 61 16.1 68 68 SW 20 31 29.93 1014 10 16.0934 0.01 0.254
1:56 pm 13:56 Cloudy 72 22.2 62 16.7 71 71 SW 18 30 29.92 1013 10 16.0934 0.01 0.254
2:56 pm 14:56 Cloudy 71 21.7 63 17.2 76 76 SSW 23 37 29.91 1013 10 16.0934 0.04 1.016
3:29 pm 15:29 Cloudy with Light Rain 70 21 63 17 78 78 SW 24 39 29.91 1013 10 16.0934 0.01 0.254
3:56 pm 15:56 Cloudy 69 20.6 62 16.7 78 78 SW 18 30 29.94 1014 10 16.0934 0.22 5.588
4:56 pm 16:56 Cloudy 70 21.1 63 17.2 79 79 SW 21 33 29.93 1013 10 16.0934 0.01 0.254
5:56 pm 17:56 Cloudy 70 21.1 63 17.2 79 79 WSW 16 26 29.94 1014 10 16.0934 0 0
6:43 pm 18:43 Cloudy with Light Rain 64 18 64 18 100 100 WNW 14 22 29.95 1014 5 8.0467 0.06 1.524
6:56 pm 18:56 Cloudy with Heavy Rain 65 18.3 65 18.3 100 100 NW 16 26 29.96 1015 7 11.26538 0.07 1.778
7:12 pm 19:12 Cloudy with Light Rain 64 18 64 18 100 100 W 12 19 29.96 1015 9 14.48406 0.06 1.524
7:56 pm 19:56 Mostly Cloudy 65 18.3 65 18.3 100 100 WNW 7 11 29.99 1016 10 16.0934 0.08 2.032
8:56 pm 20:56 Clear 63 17.2 63 17.2 100 100 Calm 29.98 1015 10 16.0934 0.53 13.462
9:56 pm 21:56 Clear with Mist and Fog 61 16.1 61 16.1 100 100 Calm 30.01 1016 6 9.65604 0 0
10:23 pm 22:23 Clear with Mist and Fog 61 16 61 16 100 100 Calm 30.01 1016 1.75 2.816345 0 0
10:26 pm 22:26 Clear with Mist and Fog 61 16 61 16 100 100 Calm 30.01 1016 0.75 1.207005 0 0
10:31 pm 22:31 Mostly Cloudy with Fog 59 15 59 15 100 100 Calm 30.02 1017 0.5 0.80467 0 0
10:45 pm 22:45 Mostly Cloudy with Mist and Fog 59 15 59 15 100 100 SE 5 7 30.02 1017 1 1.60934 0 0
10:56 pm 22:56 Mostly Cloudy with Mist and Fog 59 15 59 15 100 100 SE 3 6 30.02 1017 1 1.60934 0 0
11:00 pm 23:00 Mostly Clear with Mist and Fog 59 15 59 15 100 100 SSE 3 6 30.02 1017 2 3.21868 0 0
11:13 pm 23:13 Clear with Mist and Fog 61 16 61 16 100 100 Calm 30.02 1017 4 6.43736 0 0
11:15 pm 23:15 Clear with Mist and Fog 61 16 61 16 100 100 Calm 30.02 1017 1.75 2.816345 0 0
11:18 pm 23:18 Clear with Mist and Fog 61 16 61 16 100 100 SE 3 6 30.02 1017 0.75 1.207005 0 0
11:26 pm 23:26 Clear with Fog 57 14 57 14 100 100 SE 3 6 30.03 1017 0.25 0.402335 0 0
11:33 pm 23:33 Mostly Cloudy with Fog 57 14 57 14 100 100 SE 3 6 30.03 1017 0.25 0.402335 0 0
11:56 pm 23:56 Cloudy with Fog 58 14.4 58 14.4 100 100 Calm 30.02 1017 0.25 0.402335 0 0

Powered by AerisWeather